Wind_Speed
7 6 7 7 6 6 6 6 7 8 8 8 8 9 10 10 11 11 11 11 12 13 14 14 15 15 16 17 18 18 18 19 20 21 22 22 22 23
7 7 7 6 6 7 7 8 8 8 9 9 10 10 11 12 12 12 12 12 13 13 13 14 15 15 16 17 17 17 18 18 19 20 22 23 23 24
8 7 7 7 7 7 8 9 9 10 10 11 12 12 13 13 14 14 14 14 14 14 15 15 15 16 17 18 18 19 19 19 21 22 22 23 24 25
8 8 8 8 9 9 9 10 11 11 12 12 13 14 14 15 15 15 15 16 16 16 16 16 17 17 18 19 19 20 20 21 22 23 24 25 25 26
9 9 10 10 10 11 11 11 12 12 13 14 15 15 16 17 17 17 16 17 18 19 18 18 18 18 19 20 20 21 22 23 24 24 25 25 27 28
11 11 11 11 11 12 13 13 13 14 15 16 16 17 17 18 18 18 18 18 19 19 20 20 19 20 21 21 22 23 24 25 26 26 27 27 28 28
12 12 12 13 13 14 14 14 15 16 17 17 17 18 18 18 18 19 19 19 20 20 20 20 20 21 22 23 24 25 26 26 27 28 29 29 30 30
13 14 14 14 15 15 16 16 17 17 18 18 19 19 19 19 19 20 21 21 21 22 23 22 23 23 25 26 27 28 29 29 30 30 31 32 32 32
16 16 16 16 17 17 17 18 19 19 20 20 20 20 21 21 21 22 23 24 25 25 25 25 26 27 28 29 30 31 32 32 33 33 33 33 32 33
18 18 18 18 19 19 20 20 20 21 21 22 22 22 23 24 24 26 27 27 28 27 27 27 28 29 29 31 32 33 34 34 34 35 35 35 35 35
20 20 20 20 20 21 22 22 22 23 23 24 24 24 26 27 28 29 29 29 29 29 30 30 30 31 32 32 34 34 35 35 35 36 36 37 37 38
21 21 22 22 22 23 24 24 24 25 25 26 27 28 29 30 31 31 31 31 31 31 32 32 33 33 34 35 36 36 37 37 37 38 38 39 40 41
22 22 23 24 24 25 25 25 26 27 27 28 29 30 32 32 33 33 33 34 33 34 34 34 34 35 35 36 36 37 38 38 39 40 41 42 42 43
23 23 24 24 25 26 27 27 28 29 30 30 31 32 33 34 34 34 34 34 35 35 35 36 36 37 38 38 37 38 39 40 40 41 42 43 43 44
24 24 25 26 26 27 28 29 30 31 32 32 33 34 34 34 34 34 35 35 36 36 37 38 39 39 40 40 40 41 41 41 42 43 43 43 44 45
26 27 28 28 28 29 30 31 32 32 33 33 34 34 34 34 35 35 36 36 37 37 38 39 40 41 42 43 43 43 43 42 43 44 44 44 45 46
27 28 29 30 31 31 32 32 32 32 33 34 34 35 35 35 36 37 38 38 39 40 40 41 41 42 43 44 44 44 43 43 44 44 44 44 44 46
29 30 31 31 32 33 33 33 34 35 35 36 37 37 38 39 39 40 40 41 41 41 41 42 43 44 44 44 46 46 44 44 45 45 46 45 45 46
30 31 32 32 33 33 33 34 35 36 36 37 38 39 40 40 41 42 42 42 43 42 43 44 45 46 46 45 44 45 44 44 45 45 45 46 46 47
31 32 32 33 33 34 35 35 36 36 37 39 40 41 41 41 42 43 44 44 45 44 45 46 47 47 47 47 45 44 45 45 46 46 46 46 47 47
32 33 33 34 35 35 36 36 37 38 39 40 41 42 42 43 43 45 46 46 46 46 47 47 48 48 48 48 47 46 45 46 47 48 48 47 48 48
34 35 35 36 36 37 37 38 39 40 41 42 42 43 44 44 45 46 47 47 47 47 47 47 48 47 47 48 47 47 46 47 48 49 50 50 49 48
36 36 37 38 38 39 39 40 41 42 43 43 43 44 45 46 47 47 48 48 47 47 47 47 47 47 47 48 49 48 48 48 48 49 49 49 49 48
Wind_Direction
307 308 312 311 310 310 307 306 306 303 302 302 303 304 306 306 304 301 302 297 291 285 280 281 281 278 276 275 274 274 274 272 270 271 271 271 272 274
301 301 304 299 298 301 303 304 304 302 302 301 302 304 305 304 303 300 298 298 297 291 288 285 283 281 278 275 276 277 277 276 274 274 273 273 273 273
302 303 301 296 295 295 295 297 299 301 302 303 304 305 305 303 301 300 298 297 299 297 293 290 288 286 284 281 279 278 278 279 278 277 276 276 276 276
302 298 297 297 294 292 292 294 297 299 300 301 303 304 305 305 304 300 298 297 295 297 294 290 290 290 287 284 284 284 282 281 280 280 278 277 278 279
297 299 301 298 296 295 294 295 298 299 301 301 301 301 301 302 301 300 299 297 295 294 294 291 289 288 287 286 286 286 286 286 284 284 280 279 280 280
294 295 299 301 300 297 295 295 296 297 299 299 299 298 299 299 299 298 298 299 297 295 294 293 290 288 288 286 286 286 286 286 285 285 284 283 283 283
292 294 296 298 298 298 297 298 297 297 297 298 299 298 299 299 300 300 299 298 299 297 296 294 291 290 289 289 289 288 288 288 287 286 285 285 284 284
289 289 291 294 295 296 297 296 296 298 299 298 297 297 298 299 299 301 300 298 297 295 294 292 290 289 288 288 288 287 287 287 287 287 287 286 285 285
287 288 288 289 289 292 294 296 297 297 297 299 300 299 297 297 298 299 299 298 296 295 292 292 291 290 289 289 288 288 288 288 287 287 287 286 286 285
286 287 287 287 288 289 291 293 295 296 297 298 298 297 297 297 297 297 297 296 296 293 292 294 293 293 293 292 290 290 289 289 289 288 287 286 285 285
286 286 285 285 286 286 288 290 292 294 295 296 296 296 296 296 295 296 296 295 294 292 294 294 294 294 294 294 294 293 292 290 289 288 287 286 285 285
284 285 287 287 286 286 288 289 291 293 295 296 295 295 295 295 295 295 295 294 293 294 294 293 293 293 294 293 293 293 292 291 290 290 289 288 286 285
284 285 286 287 287 287 288 290 292 293 295 296 296 295 295 295 295 294 294 294 294 295 294 293 293 293 294 293 292 291 290 289 289 290 290 289 288 287
286 286 286 288 289 288 289 290 292 293 294 295 296 296 296 296 295 295 295 294 294 295 294 293 293 294 294 294 293 292 290 290 289 289 289 289 289 288
286 286 287 288 289 289 289 290 291 292 293 294 296 297 297 297 297 296 295 294 294 295 294 294 294 295 295 294 294 293 291 290 290 290 289 289 289 289
286 287 288 288 289 289 289 290 291 292 293 294 296 297 297 296 296 295 295 294 295 295 294 294 294 294 295 294 294 294 293 291 290 291 290 290 290 290
288 289 290 290 289 289 289 290 291 292 293 294 296 297 297 296 296 296 295 295 296 296 295 295 294 294 295 295 295 295 293 292 292 292 292 291 291 291
288 289 291 291 290 290 289 290 291 292 293 294 296 297 297 297 297 296 296 296 297 296 296 295 295 295 296 296 296 295 293 293 293 292 292 292 292 292
289 291 292 292 291 291 290 291 292 292 293 294 295 297 297 298 297 297 297 297 297 296 296 296 296 296 296 295 295 295 293 293 293 293 293 293 293 293
290 291 292 292 292 292 292 292 293 293 294 295 296 298 298 298 298 298 297 297 297 296 296 296 296 296 296 296 295 294 294 294 294 294 294 294 295 295
291 291 291 292 292 292 293 293 293 294 295 296 297 297 298 298 298 298 298 297 297 297 296 296 296 296 296 296 295 294 294 294 295 295 295 295 296 295
291 291 291 291 292 292 293 293 293 294 296 296 297 297 298 299 299 298 298 298 297 297 296 296 296 296 296 296 295 295 294 294 294 295 296 296 297 296
292 292 292 293 293 294 293 294 295 296 296 296 297 298 299 299 299 299 298 298 297 297 297 297 297 296 296 296 296 295 295 294 294 295 295 296 296 296
Height
5869 5868 5868 5867 5867 5867 5866 5866 5866 5866 5866 5865 5864 5864 5863 5863 5862 5861 5860 5859 5857 5856 5855 5854 5853 5853 5853 5853 5854 5854 5854 5854 5855 5855 5856 5856 5856 5856
5868 5867 5866 5866 5866 5865 5865 5865 5865 5864 5864 5863 5863 5862 5861 5860 5859 5858 5857 5856 5854 5853 5852 5851 5850 5849 5849 5849 5849 5849 5849 5849 5849 5849 5850 5850 5850 5849
5866 5865 5865 5864 5864 5864 5864 5863 5863 5862 5862 5861 5860 5859 5859 5857 5856 5855 5854 5853 5851 5850 5848 5847 5847 5846 5846 5845 5845 5845 5844 5844 5844 5844 5843 5843 5843 5842
5864 5864 5863 5863 5862 5862 5861 5861 5860 5860 5859 5858 5857 5856 5855 5854 5853 5852 5850 5849 5847 5846 5845 5844 5843 5842 5841 5841 5841 5840 5839 5839 5838 5837 5837 5836 5836 5835
5862 5862 5861 5861 5860 5860 5859 5858 5858 5857 5856 5855 5854 5853 5852 5850 5849 5848 5846 5845 5843 5842 5840 5839 5838 5837 5837 5836 5835 5835 5834 5833 5832 5831 5830 5829 5828 5827
5860 5860 5859 5858 5858 5857 5856 5855 5854 5854 5853 5851 5850 5849 5847 5846 5845 5843 5842 5840 5839 5837 5836 5834 5833 5832 5831 5831 5830 5829 5828 5826 5825 5824 5823 5822 5821 5819
5857 5857 5856 5855 5854 5853 5853 5852 5851 5850 5849 5847 5846 5845 5843 5842 5840 5839 5837 5836 5834 5832 5831 5829 5828 5827 5826 5824 5823 5822 5821 5819 5818 5817 5815 5814 5812 5811
5854 5854 5853 5852 5851 5850 5849 5848 5847 5846 5844 5843 5842 5840 5839 5837 5835 5834 5832 5830 5829 5827 5825 5823 5822 5821 5819 5818 5816 5814 5813 5811 5810 5808 5806 5805 5803 5801
5850 5850 5849 5848 5847 5846 5844 5843 5842 5841 5840 5838 5837 5835 5833 5832 5830 5828 5826 5824 5822 5820 5818 5817 5815 5813 5811 5809 5807 5806 5804 5802 5800 5798 5797 5795 5793 5791
5846 5845 5844 5843 5842 5841 5840 5839 5837 5836 5834 5833 5831 5829 5827 5825 5823 5821 5819 5817 5815 5812 5810 5808 5806 5804 5802 5800 5798 5796 5794 5792 5790 5788 5786 5784 5782 5780
5840 5840 5839 5838 5837 5836 5835 5833 5832 5830 5829 5827 5825 5822 5820 5818 5816 5813 5811 5809 5807 5804 5802 5799 5797 5795 5793 5791 5788 5785 5783 5780 5778 5776 5774 5772 5770 5769
5835 5834 5833 5832 5831 5829 5828 5827 5826 5824 5822 5820 5818 5816 5813 5810 5807 5805 5802 5800 5797 5795 5792 5790 5788 5785 5783 5781 5778 5774 5772 5769 5767 5764 5762 5760 5757 5755
5829 5828 5827 5825 5824 5822 5821 5820 5818 5817 5815 5813 5810 5808 5805 5802 5799 5795 5793 5790 5787 5785 5782 5779 5777 5774 5772 5770 5767 5764 5760 5758 5755 5752 5749 5746 5743 5741
5823 5821 5820 5818 5817 5815 5814 5812 5810 5808 5806 5804 5802 5799 5796 5793 5789 5786 5783 5780 5777 5774 5771 5768 5765 5762 5760 5757 5755 5752 5749 5745 5742 5740 5736 5733 5730 5726
5816 5814 5813 5811 5809 5808 5806 5804 5802 5800 5798 5795 5792 5790 5786 5783 5780 5776 5773 5770 5767 5764 5760 5757 5754 5751 5747 5744 5741 5738 5735 5732 5729 5726 5723 5719 5716 5712
5808 5807 5805 5803 5801 5799 5798 5795 5793 5791 5788 5786 5783 5780 5776 5773 5770 5766 5763 5760 5757 5753 5750 5746 5742 5738 5734 5731 5727 5724 5721 5718 5715 5711 5708 5705 5701 5698
5801 5799 5797 5795 5793 5791 5789 5786 5784 5781 5779 5776 5773 5770 5766 5763 5760 5756 5752 5749 5745 5742 5738 5734 5730 5726 5721 5717 5714 5710 5707 5704 5700 5697 5694 5691 5687 5683
5792 5791 5789 5787 5785 5782 5780 5777 5775 5772 5769 5766 5763 5759 5756 5752 5749 5745 5741 5737 5733 5729 5725 5721 5717 5713 5709 5705 5700 5696 5692 5689 5686 5682 5679 5676 5673 5669
5783 5782 5780 5777 5775 5772 5770 5767 5764 5761 5759 5755 5752 5749 5745 5741 5737 5733 5728 5724 5720 5716 5712 5707 5703 5698 5695 5692 5687 5681 5678 5675 5671 5668 5664 5661 5658 5654
5774 5772 5770 5767 5765 5762 5760 5757 5754 5751 5748 5745 5741 5737 5733 5729 5725 5720 5716 5711 5707 5703 5698 5694 5689 5684 5680 5676 5673 5669 5664 5660 5656 5653 5650 5646 5643 5639
5765 5763 5760 5758 5755 5752 5749 5746 5743 5740 5737 5733 5729 5725 5721 5716 5712 5707 5703 5698 5693 5689 5684 5679 5674 5669 5665 5661 5658 5654 5650 5646 5641 5637 5634 5631 5628 5624
5755 5753 5750 5747 5744 5741 5738 5735 5732 5728 5725 5721 5717 5713 5708 5704 5699 5694 5689 5684 5679 5674 5669 5665 5660 5655 5650 5646 5643 5639 5636 5632 5627 5623 5618 5614 5610 5607
5745 5742 5739 5736 5733 5730 5727 5723 5720 5716 5712 5708 5704 5700 5695 5690 5685 5680 5675 5669 5664 5660 5655 5651 5646 5641 5636 5632 5628 5624 5621 5617 5613 5609 5606 5600 5596 5591